Year,Month,Day,Hour,Minute,Value (Times are PST for temperature in C)
2009,07,25,00,00,19.40
2009,07,25,00,01,19.40
2009,07,25,00,02,19.50
2009,07,25,00,03,19.50
2009,07,25,00,04,19.60
2009,07,25,00,05,19.60
2009,07,25,00,06,19.70
2009,07,25,00,07,19.80
2009,07,25,00,08,19.80
2009,07,25,00,09,19.90
2009,07,25,00,10,19.90
2009,07,25,00,11,20.00
2009,07,25,00,12,20.10
2009,07,25,00,13,20.20
2009,07,25,00,14,20.30
2009,07,25,00,15,20.30
2009,07,25,00,16,20.40
2009,07,25,00,17,20.50
2009,07,25,00,18,20.50
2009,07,25,00,19,20.60
2009,07,25,00,20,20.60
2009,07,25,00,21,20.70
2009,07,25,00,22,20.70
2009,07,25,00,23,20.70
2009,07,25,00,24,20.80
2009,07,25,00,25,20.80
2009,07,25,00,26,20.80
2009,07,25,00,27,20.80
2009,07,25,00,28,20.80
2009,07,25,00,29,20.80
2009,07,25,00,30,20.90
2009,07,25,00,31,20.90
2009,07,25,00,32,20.90
2009,07,25,00,33,20.90
2009,07,25,00,34,20.90
2009,07,25,00,35,20.90
2009,07,25,00,36,20.90
2009,07,25,00,37,20.90
2009,07,25,00,38,20.90
2009,07,25,00,39,20.90
2009,07,25,00,40,20.90
2009,07,25,00,41,20.90
2009,07,25,00,42,20.90
2009,07,25,00,43,20.90
2009,07,25,00,44,20.90
2009,07,25,00,45,20.90
2009,07,25,00,46,20.90
2009,07,25,00,47,20.90
2009,07,25,00,48,20.90
2009,07,25,00,49,20.90
2009,07,25,00,50,20.90
2009,07,25,00,51,20.90
2009,07,25,00,52,20.90
2009,07,25,00,53,20.80
2009,07,25,00,54,20.80
2009,07,25,00,55,20.80
2009,07,25,00,56,20.80
2009,07,25,00,57,20.80
2009,07,25,00,58,20.80
2009,07,25,00,59,20.70
2009,07,25,01,00,20.70
2009,07,25,01,01,20.70
2009,07,25,01,02,20.70
2009,07,25,01,03,20.70
2009,07,25,01,04,20.70
2009,07,25,01,05,20.60
2009,07,25,01,06,20.60
2009,07,25,01,07,20.60
2009,07,25,01,08,20.60
2009,07,25,01,09,20.60
2009,07,25,01,10,20.60
2009,07,25,01,11,20.50
2009,07,25,01,12,20.50
2009,07,25,01,13,20.50
2009,07,25,01,14,20.50
2009,07,25,01,15,20.50
2009,07,25,01,16,20.40
2009,07,25,01,17,20.40
2009,07,25,01,18,20.40
2009,07,25,01,19,20.40
2009,07,25,01,20,20.40
2009,07,25,01,21,20.30
2009,07,25,01,22,20.30
2009,07,25,01,23,20.30
2009,07,25,01,24,20.30
2009,07,25,01,25,20.30
2009,07,25,01,26,20.30
2009,07,25,01,27,20.30
2009,07,25,01,28,20.30
2009,07,25,01,29,20.20
2009,07,25,01,30,20.20
2009,07,25,01,31,20.20
2009,07,25,01,32,20.20
2009,07,25,01,33,20.10
2009,07,25,01,34,20.10
2009,07,25,01,35,20.10
2009,07,25,01,36,20.00
2009,07,25,01,37,20.00
2009,07,25,01,38,20.00
2009,07,25,01,39,20.00
2009,07,25,01,40,19.90
2009,07,25,01,41,19.90
2009,07,25,01,42,19.90
2009,07,25,01,43,19.90
2009,07,25,01,44,19.90
2009,07,25,01,45,19.90
2009,07,25,01,46,19.80
2009,07,25,01,47,19.80
2009,07,25,01,48,19.80
2009,07,25,01,49,19.80
2009,07,25,01,50,19.80
2009,07,25,01,51,19.70
2009,07,25,01,52,19.70
2009,07,25,01,53,19.70
2009,07,25,01,54,19.70
2009,07,25,01,55,19.60
2009,07,25,01,56,19.60
2009,07,25,01,57,19.60
2009,07,25,01,58,19.60
2009,07,25,01,59,19.50
2009,07,25,02,00,19.50
2009,07,25,02,01,19.50
2009,07,25,02,02,19.50
2009,07,25,02,03,19.40
2009,07,25,02,04,19.40
2009,07,25,02,05,19.40
2009,07,25,02,06,19.40
2009,07,25,02,07,19.40
2009,07,25,02,08,19.40
2009,07,25,02,09,19.40
2009,07,25,02,10,19.40
2009,07,25,02,11,19.40
2009,07,25,02,12,19.40
2009,07,25,02,13,19.40
2009,07,25,02,14,19.40
2009,07,25,02,15,19.30
2009,07,25,02,16,19.30
2009,07,25,02,17,19.30
2009,07,25,02,18,19.30
2009,07,25,02,19,19.30
2009,07,25,02,20,19.30
2009,07,25,02,21,19.30
2009,07,25,02,22,19.30
2009,07,25,02,23,19.30
2009,07,25,02,24,19.30
2009,07,25,02,25,19.30
2009,07,25,02,26,19.30
2009,07,25,02,27,19.30
2009,07,25,02,28,19.30
2009,07,25,02,29,19.30
2009,07,25,02,30,19.20
2009,07,25,02,31,19.20
2009,07,25,02,32,19.20
2009,07,25,02,33,19.20
2009,07,25,02,34,19.20
2009,07,25,02,35,19.10
2009,07,25,02,36,19.10
2009,07,25,02,37,19.10
2009,07,25,02,38,19.10
2009,07,25,02,39,19.10
2009,07,25,02,40,19.10
2009,07,25,02,41,19.10
2009,07,25,02,42,19.00
2009,07,25,02,43,19.00
2009,07,25,02,44,19.00
2009,07,25,02,45,19.00
2009,07,25,02,46,19.00
2009,07,25,02,47,18.90
2009,07,25,02,48,18.90
2009,07,25,02,49,18.90
2009,07,25,02,50,18.90
2009,07,25,02,51,18.80
2009,07,25,02,52,18.80
2009,07,25,02,53,18.80
2009,07,25,02,54,18.80
2009,07,25,02,55,18.80
2009,07,25,02,56,18.80
2009,07,25,02,57,18.80
2009,07,25,02,58,18.80
2009,07,25,02,59,18.80
2009,07,25,03,00,18.80
2009,07,25,03,01,18.80
2009,07,25,03,02,18.70
2009,07,25,03,03,18.70
2009,07,25,03,04,18.70
2009,07,25,03,05,18.70
2009,07,25,03,06,18.70
2009,07,25,03,07,18.70
2009,07,25,03,08,18.70
2009,07,25,03,09,18.70
2009,07,25,03,10,18.60
2009,07,25,03,11,18.60
2009,07,25,03,12,18.60
2009,07,25,03,13,18.60
2009,07,25,03,14,18.60
2009,07,25,03,15,18.60
2009,07,25,03,16,18.50
2009,07,25,03,17,18.50
2009,07,25,03,18,18.50
2009,07,25,03,19,18.40
2009,07,25,03,20,18.40
2009,07,25,03,21,18.40
2009,07,25,03,22,18.40
2009,07,25,03,23,18.40
2009,07,25,03,24,18.40
2009,07,25,03,25,18.30
2009,07,25,03,26,18.30
2009,07,25,03,27,18.30
2009,07,25,03,28,18.30
2009,07,25,03,29,18.30
2009,07,25,03,30,18.30
2009,07,25,03,31,18.30
2009,07,25,03,32,18.30
2009,07,25,03,33,18.30
2009,07,25,03,34,18.30
2009,07,25,03,35,18.20
2009,07,25,03,36,18.20
2009,07,25,03,37,18.20
2009,07,25,03,38,18.20
2009,07,25,03,39,18.20
2009,07,25,03,40,18.20
2009,07,25,03,41,18.20
2009,07,25,03,42,18.20
2009,07,25,03,43,18.20
2009,07,25,03,44,18.20
2009,07,25,03,45,18.20
2009,07,25,03,46,18.20
2009,07,25,03,47,18.20
2009,07,25,03,48,18.20
2009,07,25,03,49,18.10
2009,07,25,03,50,18.10
2009,07,25,03,51,18.10
2009,07,25,03,52,18.10
2009,07,25,03,53,18.10
2009,07,25,03,54,18.10
2009,07,25,03,55,18.10
2009,07,25,03,56,18.10
2009,07,25,03,57,18.10
2009,07,25,03,58,18.10
2009,07,25,03,59,18.10
2009,07,25,04,00,18.10
2009,07,25,04,01,18.00
2009,07,25,04,02,18.00
2009,07,25,04,03,18.00
2009,07,25,04,04,18.00
2009,07,25,04,05,18.00
2009,07,25,04,06,18.00
2009,07,25,04,07,18.00
2009,07,25,04,08,18.00
2009,07,25,04,09,18.00
2009,07,25,04,10,18.00
2009,07,25,04,11,18.00
2009,07,25,04,12,18.00
2009,07,25,04,13,18.00
2009,07,25,04,14,18.00
2009,07,25,04,15,18.00
2009,07,25,04,16,18.00
2009,07,25,04,17,17.90
2009,07,25,04,18,17.90
2009,07,25,04,19,17.90
2009,07,25,04,20,17.90
2009,07,25,04,21,17.90
2009,07,25,04,22,17.90
2009,07,25,04,23,17.90
2009,07,25,04,24,17.80
2009,07,25,04,25,17.80
2009,07,25,04,26,17.80
2009,07,25,04,27,17.80
2009,07,25,04,28,17.80
2009,07,25,04,29,17.80
2009,07,25,04,30,17.80
2009,07,25,04,31,17.80
2009,07,25,04,32,17.80
2009,07,25,04,33,17.70
2009,07,25,04,34,17.70
2009,07,25,04,35,17.70
2009,07,25,04,36,17.70
2009,07,25,04,37,17.70
2009,07,25,04,38,17.80
2009,07,25,04,39,17.80
2009,07,25,04,40,17.80
2009,07,25,04,41,17.80
2009,07,25,04,42,17.80
2009,07,25,04,43,17.80
2009,07,25,04,44,17.80
2009,07,25,04,45,17.80
2009,07,25,04,46,17.90
2009,07,25,04,47,17.90
2009,07,25,04,48,17.90
2009,07,25,04,49,17.90
2009,07,25,04,50,17.90
2009,07,25,04,51,17.90
2009,07,25,04,52,17.90
2009,07,25,04,53,17.90
2009,07,25,04,54,17.90
2009,07,25,04,55,17.80
2009,07,25,04,56,17.80
2009,07,25,04,57,17.80
2009,07,25,04,58,17.80
2009,07,25,04,59,17.80
2009,07,25,05,00,17.80
2009,07,25,05,01,17.70
2009,07,25,05,02,17.70
2009,07,25,05,03,17.70
2009,07,25,05,04,17.70
2009,07,25,05,05,17.70
2009,07,25,05,06,17.60
2009,07,25,05,07,17.60
2009,07,25,05,08,17.60
2009,07,25,05,09,17.60
2009,07,25,05,10,17.50
2009,07,25,05,11,17.50
2009,07,25,05,12,17.50
2009,07,25,05,13,17.50
2009,07,25,05,14,17.40
2009,07,25,05,15,17.40
2009,07,25,05,16,17.40
2009,07,25,05,17,17.40
2009,07,25,05,18,17.40
2009,07,25,05,19,17.40
2009,07,25,05,20,17.30
2009,07,25,05,21,17.30
2009,07,25,05,22,17.30
2009,07,25,05,23,17.30
2009,07,25,05,24,17.30
2009,07,25,05,25,17.30
2009,07,25,05,26,17.30
2009,07,25,05,27,17.30
2009,07,25,05,28,17.30
2009,07,25,05,29,17.30
2009,07,25,05,30,17.30
2009,07,25,05,31,17.30
2009,07,25,05,32,17.30
2009,07,25,05,33,17.30
2009,07,25,05,34,17.30
2009,07,25,05,35,17.30
2009,07,25,05,36,17.30
2009,07,25,05,37,17.30
2009,07,25,05,38,17.30
2009,07,25,05,39,17.30
2009,07,25,05,40,17.30
2009,07,25,05,41,17.40
2009,07,25,05,42,17.40
2009,07,25,05,43,17.40
2009,07,25,05,44,17.40
2009,07,25,05,45,17.50
2009,07,25,05,46,17.50
2009,07,25,05,47,17.60
2009,07,25,05,48,17.60
2009,07,25,05,49,17.60
2009,07,25,05,50,17.60
2009,07,25,05,51,17.70
2009,07,25,05,52,17.70
2009,07,25,05,53,17.70
2009,07,25,05,54,17.70
2009,07,25,05,55,17.80
2009,07,25,05,56,17.80
2009,07,25,05,57,17.80
2009,07,25,05,58,17.80
2009,07,25,05,59,17.80
2009,07,25,06,00,17.90
2009,07,25,06,01,17.90
2009,07,25,06,02,17.90
2009,07,25,06,03,17.90
2009,07,25,06,04,18.00
2009,07,25,06,05,18.00
2009,07,25,06,06,18.00
2009,07,25,06,07,18.00
2009,07,25,06,08,18.00
2009,07,25,06,09,18.00
2009,07,25,06,10,18.00
2009,07,25,06,11,18.00
2009,07,25,06,12,18.00
2009,07,25,06,13,18.00
2009,07,25,06,14,18.00
2009,07,25,06,15,18.00
2009,07,25,06,16,18.00
2009,07,25,06,17,18.00
2009,07,25,06,18,18.00
2009,07,25,06,19,18.00
2009,07,25,06,20,18.00
2009,07,25,06,21,18.00
2009,07,25,06,22,17.90
2009,07,25,06,23,17.90
2009,07,25,06,24,17.90
2009,07,25,06,25,17.90
2009,07,25,06,26,17.80
2009,07,25,06,27,17.80
2009,07,25,06,28,17.80
2009,07,25,06,29,17.80
2009,07,25,06,30,17.80
2009,07,25,06,31,17.80
2009,07,25,06,32,17.80
2009,07,25,06,33,17.80
2009,07,25,06,34,17.80
2009,07,25,06,35,17.80
2009,07,25,06,36,17.80
2009,07,25,06,37,17.80
2009,07,25,06,38,17.80
2009,07,25,06,39,17.90
2009,07,25,06,40,17.90
2009,07,25,06,41,17.90
2009,07,25,06,42,17.90
2009,07,25,06,43,18.00
2009,07,25,06,44,18.00
2009,07,25,06,45,18.10
2009,07,25,06,46,18.10
2009,07,25,06,47,18.10
2009,07,25,06,48,18.20
2009,07,25,06,49,18.20
2009,07,25,06,50,18.30
2009,07,25,06,51,18.30
2009,07,25,06,52,18.40
2009,07,25,06,53,18.40
2009,07,25,06,54,18.40
2009,07,25,06,55,18.50
2009,07,25,06,56,18.50
2009,07,25,06,57,18.60
2009,07,25,06,58,18.60
2009,07,25,06,59,18.70
2009,07,25,07,00,18.70
2009,07,25,07,01,18.70
2009,07,25,07,02,18.70
2009,07,25,07,03,18.70
2009,07,25,07,04,18.70
2009,07,25,07,05,18.80
2009,07,25,07,06,18.80
2009,07,25,07,07,18.80
2009,07,25,07,08,18.80
2009,07,25,07,09,18.90
2009,07,25,07,10,18.90
2009,07,25,07,11,18.90
2009,07,25,07,12,19.00
2009,07,25,07,13,19.00
2009,07,25,07,14,19.10
2009,07,25,07,15,19.10
2009,07,25,07,16,19.10
2009,07,25,07,17,19.20
2009,07,25,07,18,19.20
2009,07,25,07,19,19.20
2009,07,25,07,20,19.20
2009,07,25,07,21,19.20
2009,07,25,07,22,19.20
2009,07,25,07,23,19.20
2009,07,25,07,24,19.20
2009,07,25,07,25,19.20
2009,07,25,07,26,19.20
2009,07,25,07,27,19.20
2009,07,25,07,28,19.20
2009,07,25,07,29,19.20
2009,07,25,07,30,19.20
2009,07,25,07,31,19.20
2009,07,25,07,32,19.20
2009,07,25,07,33,19.20
2009,07,25,07,34,19.20
2009,07,25,07,35,19.30
2009,07,25,07,36,19.30
2009,07,25,07,37,19.40
2009,07,25,07,38,19.40
2009,07,25,07,39,19.40
2009,07,25,07,40,19.40
2009,07,25,07,41,19.50
2009,07,25,07,42,19.50
2009,07,25,07,43,19.60
2009,07,25,07,44,19.60
2009,07,25,07,45,19.70
2009,07,25,07,46,19.70
2009,07,25,07,47,19.80
2009,07,25,07,48,19.80
2009,07,25,07,49,19.90
2009,07,25,07,50,19.90
2009,07,25,07,51,20.00
2009,07,25,07,52,20.00
2009,07,25,07,53,20.00
2009,07,25,07,54,20.00
2009,07,25,07,55,20.00
2009,07,25,07,56,20.00
2009,07,25,07,57,20.00
2009,07,25,07,58,20.00
2009,07,25,07,59,20.00
2009,07,25,08,00,19.90
2009,07,25,08,01,19.90
2009,07,25,08,02,20.00
2009,07,25,08,03,20.00
2009,07,25,08,04,19.90
2009,07,25,08,05,19.90
2009,07,25,08,06,19.90
2009,07,25,08,07,19.90
2009,07,25,08,08,19.90
2009,07,25,08,09,19.90
2009,07,25,08,10,19.90
2009,07,25,08,11,19.90
2009,07,25,08,12,19.90
2009,07,25,08,13,20.00
2009,07,25,08,14,20.00
2009,07,25,08,15,20.00
2009,07,25,08,16,20.00
2009,07,25,08,17,20.00
2009,07,25,08,18,20.10
2009,07,25,08,19,20.10
2009,07,25,08,20,20.10
2009,07,25,08,21,20.10
2009,07,25,08,22,20.10
2009,07,25,08,23,20.10
2009,07,25,08,24,20.10
2009,07,25,08,25,20.00
2009,07,25,08,26,20.00
2009,07,25,08,27,19.90
2009,07,25,08,28,19.90
2009,07,25,08,29,19.80
2009,07,25,08,30,19.80
2009,07,25,08,31,19.80
2009,07,25,08,32,19.80
2009,07,25,08,33,19.80
2009,07,25,08,34,19.80
2009,07,25,08,35,19.80
2009,07,25,08,36,19.80
2009,07,25,08,37,19.90
2009,07,25,08,38,19.90
2009,07,25,08,39,19.90
2009,07,25,08,40,20.00
2009,07,25,08,41,20.00
2009,07,25,08,42,20.00
2009,07,25,08,43,20.00
2009,07,25,08,44,20.00
2009,07,25,08,45,20.10
2009,07,25,08,46,20.10
2009,07,25,08,47,20.00
2009,07,25,08,48,20.00
2009,07,25,08,49,20.00
2009,07,25,08,50,20.00
2009,07,25,08,51,20.00
2009,07,25,08,52,20.00
2009,07,25,08,53,20.00
2009,07,25,08,54,20.10
2009,07,25,08,55,20.10
2009,07,25,08,56,20.10
2009,07,25,08,57,20.10
2009,07,25,08,58,20.00
2009,07,25,08,59,20.00
2009,07,25,09,00,19.90
2009,07,25,09,01,19.90
2009,07,25,09,02,19.90
2009,07,25,09,03,19.90
2009,07,25,09,04,19.90
2009,07,25,09,05,19.90
2009,07,25,09,06,20.00
2009,07,25,09,07,20.00
2009,07,25,09,08,20.00
2009,07,25,09,09,20.00
2009,07,25,09,10,20.00
2009,07,25,09,11,20.00
2009,07,25,09,12,20.00
2009,07,25,09,13,20.10
2009,07,25,09,14,20.10
2009,07,25,09,15,20.10
2009,07,25,09,16,20.10
2009,07,25,09,17,20.10
2009,07,25,09,18,20.10
2009,07,25,09,19,20.10
2009,07,25,09,20,20.10
2009,07,25,09,21,20.10
2009,07,25,09,22,20.10
2009,07,25,09,23,20.10
2009,07,25,09,24,20.10
2009,07,25,09,25,20.10
2009,07,25,09,26,20.10
2009,07,25,09,27,20.20
2009,07,25,09,28,20.20
2009,07,25,09,29,20.20
2009,07,25,09,30,20.20
2009,07,25,09,31,20.20
2009,07,25,09,32,20.20
2009,07,25,09,33,20.20
2009,07,25,09,34,20.20
2009,07,25,09,35,20.20
2009,07,25,09,36,20.30
2009,07,25,09,37,20.30
2009,07,25,09,38,20.30
2009,07,25,09,39,20.40
2009,07,25,09,40,20.40
2009,07,25,09,41,20.50
2009,07,25,09,42,20.60
2009,07,25,09,43,20.60
2009,07,25,09,44,20.60
2009,07,25,09,45,20.50
2009,07,25,09,46,20.50
2009,07,25,09,47,20.40
2009,07,25,09,48,20.40
2009,07,25,09,49,20.40
2009,07,25,09,50,20.30
2009,07,25,09,51,20.30
2009,07,25,09,52,20.30
2009,07,25,09,53,20.30
2009,07,25,09,54,20.30
2009,07,25,09,55,20.20
2009,07,25,09,56,20.20
2009,07,25,09,57,20.20
2009,07,25,09,58,20.20
2009,07,25,09,59,20.20
2009,07,25,10,00,20.30
2009,07,25,10,01,20.30
2009,07,25,10,02,20.30
2009,07,25,10,03,20.30
2009,07,25,10,04,20.30
2009,07,25,10,05,20.30
2009,07,25,10,06,20.30
2009,07,25,10,07,20.40
2009,07,25,10,08,20.40
2009,07,25,10,09,20.50
2009,07,25,10,10,20.50
2009,07,25,10,11,20.60
2009,07,25,10,12,20.60
2009,07,25,10,13,20.60
2009,07,25,10,14,20.60
2009,07,25,10,15,20.70
2009,07,25,10,16,20.70
2009,07,25,10,17,20.70
2009,07,25,10,18,20.70
2009,07,25,10,19,20.80
2009,07,25,10,20,20.80
2009,07,25,10,21,20.80
2009,07,25,10,22,20.80
2009,07,25,10,23,20.90
2009,07,25,10,24,20.90
2009,07,25,10,25,20.90
2009,07,25,10,26,20.90
2009,07,25,10,27,20.90
2009,07,25,10,28,20.90
2009,07,25,10,29,20.90
2009,07,25,10,30,21.00
2009,07,25,10,31,20.90
2009,07,25,10,32,20.90
2009,07,25,10,33,20.90
2009,07,25,10,34,20.90
2009,07,25,10,35,20.90
2009,07,25,10,36,20.80
2009,07,25,10,37,20.80
2009,07,25,10,38,20.90
2009,07,25,10,39,20.90
2009,07,25,10,40,20.90
2009,07,25,10,41,21.00
2009,07,25,10,42,21.00
2009,07,25,10,43,21.00
2009,07,25,10,44,21.10
2009,07,25,10,45,21.20
2009,07,25,10,46,21.20
2009,07,25,10,47,21.20
2009,07,25,10,48,21.20
2009,07,25,10,49,21.30
2009,07,25,10,50,21.30
2009,07,25,10,51,21.30
2009,07,25,10,52,21.30
2009,07,25,10,53,21.30
2009,07,25,10,54,21.30
2009,07,25,10,55,21.30
2009,07,25,10,56,21.30
2009,07,25,10,57,21.30
2009,07,25,10,58,21.40
2009,07,25,10,59,21.40
2009,07,25,11,00,21.40
2009,07,25,11,01,21.50
2009,07,25,11,02,21.50
2009,07,25,11,03,21.50
2009,07,25,11,04,21.60
2009,07,25,11,05,21.60
2009,07,25,11,06,21.60
2009,07,25,11,07,21.60
2009,07,25,11,08,21.70
2009,07,25,11,09,21.60
2009,07,25,11,10,21.50
2009,07,25,11,11,21.50
2009,07,25,11,12,21.50
2009,07,25,11,13,21.50
2009,07,25,11,14,21.50
2009,07,25,11,15,21.40
2009,07,25,11,16,21.30
2009,07,25,11,17,21.30
2009,07,25,11,18,21.30
2009,07,25,11,19,21.30
2009,07,25,11,20,21.30
2009,07,25,11,21,21.30
2009,07,25,11,22,21.30
2009,07,25,11,23,21.40
2009,07,25,11,24,21.40
2009,07,25,11,25,21.40
2009,07,25,11,26,21.40
2009,07,25,11,27,21.40
2009,07,25,11,28,21.50
2009,07,25,11,29,21.60
2009,07,25,11,30,21.60
2009,07,25,11,31,21.70
2009,07,25,11,32,21.70
2009,07,25,11,33,21.60
2009,07,25,11,34,21.60
2009,07,25,11,35,21.60
2009,07,25,11,36,21.60
2009,07,25,11,37,21.60
2009,07,25,11,38,21.60
2009,07,25,11,39,21.60
2009,07,25,11,40,21.60
2009,07,25,11,41,21.60
2009,07,25,11,42,21.70
2009,07,25,11,43,21.70
2009,07,25,11,44,21.70
2009,07,25,11,45,21.70
2009,07,25,11,46,21.80
2009,07,25,11,47,21.80
2009,07,25,11,48,21.90
2009,07,25,11,49,22.00
2009,07,25,11,50,22.00
2009,07,25,11,51,22.00
2009,07,25,11,52,22.10
2009,07,25,11,53,22.10
2009,07,25,11,54,22.10
2009,07,25,11,55,22.20
2009,07,25,11,56,22.20
2009,07,25,11,57,22.20
2009,07,25,11,58,22.20
2009,07,25,11,59,22.20
2009,07,25,12,00,22.20
2009,07,25,12,01,22.20
2009,07,25,12,02,22.30
2009,07,25,12,03,22.30
2009,07,25,12,04,22.20
2009,07,25,12,05,22.20
2009,07,25,12,06,22.20
2009,07,25,12,07,22.20
2009,07,25,12,08,22.20
2009,07,25,12,09,22.30
2009,07,25,12,10,22.30
2009,07,25,12,11,22.20
2009,07,25,12,12,22.20
2009,07,25,12,13,22.10
2009,07,25,12,14,22.10
2009,07,25,12,15,22.10
2009,07,25,12,16,22.10
2009,07,25,12,17,22.00
2009,07,25,12,18,22.00
2009,07,25,12,19,21.90
2009,07,25,12,20,21.90
2009,07,25,12,21,21.90
2009,07,25,12,22,21.90
2009,07,25,12,23,21.80
2009,07,25,12,24,21.70
2009,07,25,12,25,21.70
2009,07,25,12,26,21.60
2009,07,25,12,27,21.60
2009,07,25,12,28,21.60
2009,07,25,12,29,21.70
2009,07,25,12,30,21.70
2009,07,25,12,31,21.60
2009,07,25,12,32,21.60
2009,07,25,12,33,21.60
2009,07,25,12,34,21.60
2009,07,25,12,35,21.60
2009,07,25,12,36,21.70
2009,07,25,12,37,21.70
2009,07,25,12,38,21.80
2009,07,25,12,39,21.80
2009,07,25,12,40,21.80
2009,07,25,12,41,21.90
2009,07,25,12,42,22.00
2009,07,25,12,43,22.10
2009,07,25,12,44,22.20
2009,07,25,12,45,22.10
2009,07,25,12,46,22.10
2009,07,25,12,47,22.10
2009,07,25,12,48,22.10
2009,07,25,12,49,22.10
2009,07,25,12,50,22.10
2009,07,25,12,51,22.10
2009,07,25,12,52,22.10
2009,07,25,12,53,22.10
2009,07,25,12,54,22.10
2009,07,25,12,55,22.20
2009,07,25,12,56,22.20
2009,07,25,12,57,22.20
2009,07,25,12,58,22.10
2009,07,25,12,59,22.10
2009,07,25,13,00,22.00
2009,07,25,13,01,22.00
2009,07,25,13,02,21.90
2009,07,25,13,03,21.90
2009,07,25,13,04,21.90
2009,07,25,13,05,21.80
2009,07,25,13,06,21.80
2009,07,25,13,07,21.90
2009,07,25,13,08,22.00
2009,07,25,13,09,22.00
2009,07,25,13,10,22.10
2009,07,25,13,11,22.10
2009,07,25,13,12,22.30
2009,07,25,13,13,22.40
2009,07,25,13,14,22.50
2009,07,25,13,15,22.70
2009,07,25,13,16,22.80
2009,07,25,13,17,22.80
2009,07,25,13,18,22.90
2009,07,25,13,19,23.00
2009,07,25,13,20,23.00
2009,07,25,13,21,23.00
2009,07,25,13,22,23.00
2009,07,25,13,23,23.10
2009,07,25,13,24,23.20
2009,07,25,13,25,23.20
2009,07,25,13,26,23.10
2009,07,25,13,27,23.00
2009,07,25,13,28,22.90
2009,07,25,13,29,23.00
2009,07,25,13,30,23.10
2009,07,25,13,31,23.10
2009,07,25,13,32,23.20
2009,07,25,13,33,23.30
2009,07,25,13,34,23.40
2009,07,25,13,35,23.40
2009,07,25,13,36,23.50
2009,07,25,13,37,23.60
2009,07,25,13,38,23.60
2009,07,25,13,39,23.70
2009,07,25,13,40,23.70
2009,07,25,13,41,23.80
2009,07,25,13,42,23.80
2009,07,25,13,43,23.90
2009,07,25,13,44,24.00
2009,07,25,13,45,24.10
2009,07,25,13,46,24.10
2009,07,25,13,47,24.20
2009,07,25,13,48,24.30
2009,07,25,13,49,24.40
2009,07,25,13,50,24.40
2009,07,25,13,51,24.40
2009,07,25,13,52,24.40
2009,07,25,13,53,24.30
2009,07,25,13,54,24.30
2009,07,25,13,55,24.20
2009,07,25,13,56,24.20
2009,07,25,13,57,24.20
2009,07,25,13,58,24.20
2009,07,25,13,59,24.20
2009,07,25,14,00,24.20
2009,07,25,14,01,24.20
2009,07,25,14,02,24.20
2009,07,25,14,03,24.20
2009,07,25,14,04,24.20
2009,07,25,14,05,24.30
2009,07,25,14,06,24.30
2009,07,25,14,07,24.40
2009,07,25,14,08,24.40
2009,07,25,14,09,24.50
2009,07,25,14,10,24.60
2009,07,25,14,11,24.60
2009,07,25,14,12,24.70
2009,07,25,14,13,24.80
2009,07,25,14,14,24.80
2009,07,25,14,15,24.80
2009,07,25,14,16,24.80
2009,07,25,14,17,24.80
2009,07,25,14,18,24.90
2009,07,25,14,19,24.90
2009,07,25,14,20,24.90
2009,07,25,14,21,24.90
2009,07,25,14,22,24.80
2009,07,25,14,23,24.80
2009,07,25,14,24,24.80
2009,07,25,14,25,24.80
2009,07,25,14,26,24.90
2009,07,25,14,27,25.10
2009,07,25,14,28,25.20
2009,07,25,14,29,25.40
2009,07,25,14,30,25.50
2009,07,25,14,31,25.60
2009,07,25,14,32,25.80
2009,07,25,14,33,25.90
2009,07,25,14,34,25.90
2009,07,25,14,35,25.90
2009,07,25,14,36,25.90
2009,07,25,14,37,25.90
2009,07,25,14,38,26.00
2009,07,25,14,39,26.10
2009,07,25,14,40,26.20
2009,07,25,14,41,26.10
2009,07,25,14,42,26.10
2009,07,25,14,43,26.10
2009,07,25,14,44,26.10
2009,07,25,14,45,26.10
2009,07,25,14,46,26.20
2009,07,25,14,47,26.30
2009,07,25,14,48,26.40
2009,07,25,14,49,26.40
2009,07,25,14,50,26.50
2009,07,25,14,51,26.50
2009,07,25,14,52,26.40
2009,07,25,14,53,26.40
2009,07,25,14,54,26.50
2009,07,25,14,55,26.50
2009,07,25,14,56,26.60
2009,07,25,14,57,26.70
2009,07,25,14,58,26.90
2009,07,25,14,59,26.90
2009,07,25,15,00,26.90
2009,07,25,15,01,26.90
2009,07,25,15,02,26.90
2009,07,25,15,03,26.90
2009,07,25,15,04,26.90
2009,07,25,15,05,26.90
2009,07,25,15,06,26.80
2009,07,25,15,07,26.80
2009,07,25,15,08,26.80
2009,07,25,15,09,26.70
2009,07,25,15,10,26.70
2009,07,25,15,11,26.60
2009,07,25,15,12,26.60
2009,07,25,15,13,26.60
2009,07,25,15,14,26.60
2009,07,25,15,15,26.70
2009,07,25,15,16,26.70
2009,07,25,15,17,26.70
2009,07,25,15,18,26.70
2009,07,25,15,19,26.70
2009,07,25,15,20,26.80
2009,07,25,15,21,26.80
2009,07,25,15,22,26.80
2009,07,25,15,23,26.80
2009,07,25,15,24,26.80
2009,07,25,15,25,26.70
2009,07,25,15,26,26.70
2009,07,25,15,27,26.70
2009,07,25,15,28,26.60
2009,07,25,15,29,26.60
2009,07,25,15,30,26.60
2009,07,25,15,31,26.70
2009,07,25,15,32,26.80
2009,07,25,15,33,26.80
2009,07,25,15,34,26.90
2009,07,25,15,35,26.90
2009,07,25,15,36,26.90
2009,07,25,15,37,26.90
2009,07,25,15,38,26.90
2009,07,25,15,39,26.90
2009,07,25,15,40,26.90
2009,07,25,15,41,26.90
2009,07,25,15,42,26.90
2009,07,25,15,43,27.00
2009,07,25,15,44,27.00
2009,07,25,15,45,27.00
2009,07,25,15,46,26.90
2009,07,25,15,47,26.90
2009,07,25,15,48,26.80
2009,07,25,15,49,26.80
2009,07,25,15,50,26.80
2009,07,25,15,51,26.80
2009,07,25,15,52,26.80
2009,07,25,15,53,26.80
2009,07,25,15,54,26.90
2009,07,25,15,55,26.90
2009,07,25,15,56,27.00
2009,07,25,15,57,27.10
2009,07,25,15,58,27.10
2009,07,25,15,59,27.20
2009,07,25,16,00,27.20
2009,07,25,16,01,27.20
2009,07,25,16,02,27.00
2009,07,25,16,03,26.90
2009,07,25,16,04,26.80
2009,07,25,16,05,26.80
2009,07,25,16,06,26.90
2009,07,25,16,07,26.90
2009,07,25,16,08,27.00
2009,07,25,16,09,27.10
2009,07,25,16,10,27.10
2009,07,25,16,11,27.20
2009,07,25,16,12,27.20
2009,07,25,16,13,27.20
2009,07,25,16,14,27.20
2009,07,25,16,15,27.20
2009,07,25,16,16,27.20
2009,07,25,16,17,27.20
2009,07,25,16,18,27.20
2009,07,25,16,19,27.30
2009,07,25,16,20,27.30
2009,07,25,16,21,27.40
2009,07,25,16,22,27.40
2009,07,25,16,23,27.50
2009,07,25,16,24,27.40
2009,07,25,16,25,27.40
2009,07,25,16,26,27.30
2009,07,25,16,27,27.30
2009,07,25,16,28,27.20
2009,07,25,16,29,27.20
2009,07,25,16,30,27.20
2009,07,25,16,31,27.30
2009,07,25,16,32,27.30
2009,07,25,16,33,27.30
2009,07,25,16,34,27.40
2009,07,25,16,35,27.40
2009,07,25,16,36,27.40
2009,07,25,16,37,27.40
2009,07,25,16,38,27.30
2009,07,25,16,39,27.30
2009,07,25,16,40,27.30
2009,07,25,16,41,27.20
2009,07,25,16,42,27.10
2009,07,25,16,43,27.00
2009,07,25,16,44,26.90
2009,07,25,16,45,26.80
2009,07,25,16,46,26.80
2009,07,25,16,47,26.80
2009,07,25,16,48,26.90
2009,07,25,16,49,27.00
2009,07,25,16,50,27.10
2009,07,25,16,51,27.20
2009,07,25,16,52,27.20
2009,07,25,16,53,27.20
2009,07,25,16,54,27.30
2009,07,25,16,55,27.20
2009,07,25,16,56,27.30
2009,07,25,16,57,27.30
2009,07,25,16,58,27.40
2009,07,25,16,59,27.50
2009,07,25,17,00,27.60
2009,07,25,17,01,27.50
2009,07,25,17,02,27.60
2009,07,25,17,03,27.60
2009,07,25,17,04,27.60
2009,07,25,17,05,27.60
2009,07,25,17,06,27.60
2009,07,25,17,07,27.70
2009,07,25,17,08,27.70
2009,07,25,17,09,27.70
2009,07,25,17,10,27.80
2009,07,25,17,11,27.80
2009,07,25,17,12,27.90
2009,07,25,17,13,28.00
2009,07,25,17,14,28.20
2009,07,25,17,15,28.30
2009,07,25,17,16,28.30
2009,07,25,17,17,28.30
2009,07,25,17,18,28.30
2009,07,25,17,19,28.40